When you browse on this site, cookies collect data to enhance your experience and personalize the content and advertising you see.
Visit our Privacy Policy to learn more. By continuing to use the site, you agree to this use of cookies and data.
  • In France
  • List of Countries
  • For 7 days
  • Water Temperature
  • Weather Map
  • Weather Widgets
  • user-avatar
    Login

    Hourly Weather Northampton

    Today, 23 September, Monday

    Time Temperature Precipitation Wind Pressure Humidity
    00:00 +12°C° 0 mm 4 mps 745 mmHg 93%
    01:00 +12°C° 0 mm 4 mps 745 mmHg 94%
    02:00 +12°C° 0 mm 4 mps 746 mmHg 95%
    03:00 +12°C° 0 mm 4 mps 746 mmHg 96%
    04:00 +12°C° 0 mm 4 mps 746 mmHg 95%
    05:00 +12°C° 0 mm 4 mps 747 mmHg 95%
    06:00 +12°C° 0 mm 4 mps 747 mmHg 94%
    07:00 +13°C° 0 mm 4 mps 748 mmHg 88%
    08:00 +14°C° 0 mm 5 mps 748 mmHg 83%
    09:00 +15°C° 0 mm 5 mps 748 mmHg 77%
    10:00 +16°C° 0 mm 5 mps 749 mmHg 71%
    11:00 +17°C° 0 mm 5 mps 749 mmHg 65%
    12:00 +19°C° 0 mm 5 mps 749 mmHg 59%
    13:00 +19°C° 0 mm 6 mps 749 mmHg 60%
    14:00 +19°C° 0 mm 6 mps 748 mmHg 60%
    15:00 +19°C° 0 mm 6 mps 748 mmHg 60%
    16:00 +17°C° 0.2 mm 6 mps 748 mmHg 67%
    17:00 +16°C° 0.2 mm 6 mps 747 mmHg 74%
    18:00 +15°C° 0.2 mm 5 mps 747 mmHg 81%
    19:00 +15°C° 0.2 mm 6 mps 747 mmHg 84%
    20:00 +15°C° 0.2 mm 7 mps 747 mmHg 86%
    21:00 +15°C° 0.2 mm 7 mps 747 mmHg 88%
    22:00 +15°C° 0.1 mm 7 mps 747 mmHg 89%
    23:00 +15°C° 0.1 mm 6 mps 746 mmHg 90%

    Tomorrow, 24 September, Tuesday

    Time Temperature Precipitation Wind Pressure Humidity
    00:00 +16°C° 0.1 mm 6 mps 746 mmHg 91%
    01:00 +16°C° 0.1 mm 5 mps 745 mmHg 92%
    02:00 +16°C° 0.1 mm 5 mps 744 mmHg 92%
    03:00 +16°C° 0.1 mm 5 mps 744 mmHg 92%
    04:00 +16°C° 1 mm 5 mps 743 mmHg 93%
    05:00 +16°C° 1 mm 5 mps 742 mmHg 94%
    06:00 +16°C° 1 mm 5 mps 742 mmHg 95%
    07:00 +16°C° 2.9 mm 6 mps 741 mmHg 92%
    08:00 +16°C° 2.9 mm 7 mps 741 mmHg 90%
    09:00 +16°C° 2.9 mm 7 mps 740 mmHg 87%
    10:00 +16°C° 0.7 mm 7 mps 740 mmHg 83%
    11:00 +17°C° 0.7 mm 6 mps 740 mmHg 80%
    12:00 +19°C° 0.7 mm 5 mps 740 mmHg 76%
    13:00 +19°C° 0.5 mm 6 mps 740 mmHg 74%
    14:00 +19°C° 0.5 mm 6 mps 740 mmHg 72%
    15:00 +18°C° 0.5 mm 7 mps 740 mmHg 70%
    16:00 +17°C° 0 mm 6 mps 740 mmHg 74%
    17:00 +15°C° 0 mm 5 mps 740 mmHg 78%
    18:00 +14°C° 0 mm 4 mps 741 mmHg 82%
    19:00 +14°C° 0.2 mm 5 mps 741 mmHg 85%
    20:00 +14°C° 0.2 mm 5 mps 741 mmHg 88%
    21:00 +13°C° 0.2 mm 5 mps 741 mmHg 90%
    22:00 +13°C° 0.2 mm 5 mps 740 mmHg 91%
    23:00 +13°C° 0.2 mm 5 mps 740 mmHg 91%

    Day after tomorrow, 25 September, Wednesday

    Time Temperature Precipitation Wind Pressure Humidity
    00:00 +13°C° 0.2 mm 6 mps 739 mmHg 91%
    01:00 +13°C° 0.3 mm 5 mps 739 mmHg 92%
    02:00 +14°C° 0.3 mm 5 mps 739 mmHg 93%
    03:00 +14°C° 0.3 mm 4 mps 738 mmHg 93%
    04:00 +14°C° 0.5 mm 4 mps 738 mmHg 94%
    05:00 +14°C° 0.5 mm 3 mps 738 mmHg 95%
    06:00 +15°C° 0.5 mm 2 mps 738 mmHg 95%
    07:00 +14°C° 0 mm 3 mps 739 mmHg 92%
    08:00 +15°C° 0 mm 4 mps 739 mmHg 89%
    09:00 +16°C° 0 mm 5 mps 740 mmHg 86%
    10:00 +16°C° 0.1 mm 5 mps 741 mmHg 83%
    11:00 +16°C° 0.1 mm 5 mps 741 mmHg 81%
    12:00 +17°C° 0.1 mm 5 mps 741 mmHg 78%
    13:00 +17°C° 0.1 mm 5 mps 742 mmHg 75%
    14:00 +19°C° 0.1 mm 5 mps 742 mmHg 73%
    15:00 +19°C° 0.1 mm 5 mps 742 mmHg 70%
    16:00 +17°C° 0.1 mm 5 mps 742 mmHg 75%
    17:00 +17°C° 0.1 mm 4 mps 743 mmHg 80%
    18:00 +15°C° 0.1 mm 4 mps 743 mmHg 85%
    19:00 +15°C° 0 mm 4 mps 743 mmHg 87%
    20:00 +14°C° 0 mm 4 mps 743 mmHg 90%
    21:00 +14°C° 0 mm 4 mps 743 mmHg 92%
    22:00 +14°C° 0.8 mm 5 mps 742 mmHg 92%
    23:00 +15°C° 0.8 mm 6 mps 742 mmHg 93%

    26 September, Thursday

    Time Temperature Precipitation Wind Pressure Humidity
    00:00 +16°C° 0.8 mm 6 mps 742 mmHg 93%
    01:00 +15°C° 0.1 mm 7 mps 742 mmHg 91%
    02:00 +15°C° 0.1 mm 7 mps 742 mmHg 90%
    03:00 +15°C° 0.1 mm 7 mps 741 mmHg 88%
    04:00 +15°C° 1.3 mm 7 mps 741 mmHg 90%
    05:00 +15°C° 1.3 mm 6 mps 741 mmHg 92%
    06:00 +15°C° 1.3 mm 6 mps 741 mmHg 94%
    07:00 +15°C° 1.9 mm 6 mps 742 mmHg 89%
    08:00 +15°C° 1.9 mm 7 mps 742 mmHg 84%
    09:00 +15°C° 1.9 mm 7 mps 742 mmHg 79%
    10:00 +16°C° 0 mm 7 mps 743 mmHg 75%
    11:00 +16°C° 0 mm 7 mps 743 mmHg 71%
    12:00 +17°C° 0 mm 7 mps 743 mmHg 67%
    13:00 +16°C° 0.2 mm 7 mps 743 mmHg 70%
    14:00 +16°C° 0.2 mm 6 mps 743 mmHg 72%
    15:00 +15°C° 0.2 mm 6 mps 743 mmHg 74%
    16:00 +15°C° 0 mm 6 mps 743 mmHg 76%
    17:00 +14°C° 0 mm 5 mps 743 mmHg 79%
    18:00 +13°C° 0 mm 5 mps 743 mmHg 82%
    19:00 +13°C° 0 mm 5 mps 743 mmHg 83%
    20:00 +13°C° 0 mm 5 mps 744 mmHg 84%
    21:00 +13°C° 0 mm 6 mps 744 mmHg 84%
    22:00 +11°C° 0 mm 6 mps 744 mmHg 85%
    23:00 +11°C° 0 mm 6 mps 744 mmHg 86%

    27 September, Friday

    Time Temperature Precipitation Wind Pressure Humidity
    00:00 +11°C° 0 mm 6 mps 743 mmHg 87%
    01:00 +12°C° 0 mm 5 mps 743 mmHg 87%
    02:00 +12°C° 0 mm 5 mps 743 mmHg 86%
    03:00 +10°C° 0 mm 5 mps 743 mmHg 86%
    04:00 +10°C° 0 mm 5 mps 742 mmHg 87%
    05:00 +10°C° 0 mm 5 mps 742 mmHg 88%
    06:00 +10°C° 0 mm 5 mps 742 mmHg 89%
    07:00 +11°C° 0.1 mm 6 mps 742 mmHg 86%
    08:00 +13°C° 0.1 mm 6 mps 742 mmHg 82%
    09:00 +12°C° 0.1 mm 7 mps 742 mmHg 79%
    10:00 +13°C° 0.1 mm 8 mps 742 mmHg 76%
    11:00 +15°C° 0.1 mm 8 mps 742 mmHg 72%
    12:00 +16°C° 0.1 mm 9 mps 742 mmHg 69%
    13:00 +15°C° 0.4 mm 8 mps 741 mmHg 73%
    14:00 +13°C° 0.4 mm 8 mps 741 mmHg 77%
    15:00 +13°C° 0.4 mm 8 mps 741 mmHg 82%
    16:00 +12°C° 0.8 mm 8 mps 741 mmHg 83%
    17:00 +12°C° 0.8 mm 8 mps 741 mmHg 84%
    18:00 +12°C° 0.8 mm 8 mps 741 mmHg 86%
    19:00 +12°C° 0.8 mm 8 mps 741 mmHg 86%
    20:00 +12°C° 0.8 mm 8 mps 741 mmHg 87%
    21:00 +12°C° 0.8 mm 8 mps 741 mmHg 87%
    22:00 +12°C° 0.5 mm 7 mps 741 mmHg 89%
    23:00 +11°C° 0.5 mm 6 mps 741 mmHg 90%

    28 September, Saturday

    Time Temperature Precipitation Wind Pressure Humidity
    00:00 +11°C° 0.5 mm 6 mps 741 mmHg 91%
    01:00 +11°C° 0.4 mm 6 mps 741 mmHg 89%
    02:00 +11°C° 0.4 mm 6 mps 741 mmHg 88%
    03:00 +11°C° 0.4 mm 6 mps 741 mmHg 87%
    04:00 +11°C° 0.1 mm 6 mps 741 mmHg 88%
    05:00 +10°C° 0.1 mm 6 mps 741 mmHg 90%
    06:00 +10°C° 0.1 mm 5 mps 741 mmHg 91%
    07:00 +10°C° 0 mm 6 mps 742 mmHg 87%
    08:00 +11°C° 0 mm 6 mps 742 mmHg 83%
    09:00 +12°C° 0 mm 7 mps 742 mmHg 79%
    10:00 +12°C° 0 mm 7 mps 743 mmHg 76%
    11:00 +14°C° 0 mm 7 mps 743 mmHg 73%
    12:00 +15°C° 0 mm 7 mps 743 mmHg 70%
    13:00 +15°C° 0.1 mm 7 mps 743 mmHg 69%
    14:00 +15°C° 0.1 mm 7 mps 743 mmHg 67%
    15:00 +15°C° 0.1 mm 7 mps 743 mmHg 66%
    16:00 +14°C° 0 mm 6 mps 744 mmHg 70%
    17:00 +13°C° 0 mm 5 mps 744 mmHg 75%
    18:00 +12°C° 0 mm 4 mps 744 mmHg 79%
    19:00 +11°C° 0 mm 4 mps 744 mmHg 82%
    20:00 +11°C° 0 mm 4 mps 744 mmHg 85%
    21:00 +10°C° 0 mm 4 mps 745 mmHg 87%
    22:00 +10°C° 0 mm 4 mps 744 mmHg 89%
    23:00 +10°C° 0 mm 4 mps 744 mmHg 91%
    Show more